This is the latest recevied weather packets stored in our database for station/object JA3YAI-13. If no packets are shown the sender has not sent any weather packets the latest 1 day(s).
| Time | Temp. | Humidity | Pressure | Rain* | Wind** | Luminosity | Snow |
|---|---|---|---|---|---|---|---|
| 1778016413 | 14.44° C | 85% | 1012.8 hPa | 0 mm | 0.45 m/s, 135° | - | - |
| 1778015813 | 14.44° C | 84% | 1012.8 hPa | 0 mm | 0 m/s | - | - |
| 1778015212 | 13.89° C | 85% | 1012.8 hPa | 0 mm | 0.45 m/s, 135° | - | - |
| 1778014612 | 13.89° C | 85% | 1012.6 hPa | 0 mm | 0.45 m/s, 114° | - | - |
| 1778014012 | 13.89° C | 85% | 1012.5 hPa | 0 mm | 0.45 m/s, 135° | - | - |
| 1778013412 | 13.33° C | 86% | 1012.5 hPa | 0 mm | 0.45 m/s, 158° | - | - |
| 1778012812 | 13.33° C | 87% | 1012.4 hPa | 0 mm | 0.89 m/s, 157° | - | - |
| 1778012212 | 13.33° C | 86% | 1012.8 hPa | 0 mm | 0.45 m/s, 145° | - | - |
| 1778011612 | 13.89° C | 85% | 1012.4 hPa | 0 mm | 0.45 m/s, 158° | - | - |
| 1778011012 | 13.33° C | 85% | 1012.2 hPa | 0 mm | 0.45 m/s, 158° | - | - |
| 1778010385 | 13.33° C | 85% | 1012.2 hPa | 0 mm | 0.45 m/s, 158° | - | - |
| 1778009784 | 13.33° C | 85% | 1012.2 hPa | 0 mm | 0.45 m/s, 138° | - | - |
| 1778009184 | 13.33° C | 84% | 1012.4 hPa | 0 mm | 0 m/s | - | - |
| 1778008583 | 13.89° C | 83% | 1012.5 hPa | 0 mm | 0 m/s | - | - |
| 1778007985 | 13.89° C | 84% | 1012.7 hPa | 0 mm | 0.45 m/s, 113° | - | - |
| 1778007384 | 13.33° C | 86% | 1012.7 hPa | 0 mm | 0.45 m/s, 158° | - | - |
| 1778006784 | 12.22° C | 92% | 1012.6 hPa | 0 mm | 0 m/s | - | - |
| 1778006184 | 11.67° C | 92% | 1012.8 hPa | 0 mm | 0 m/s | - | - |
| 1778005583 | 11.67° C | 92% | 1012.9 hPa | 0 mm | 0 m/s | - | - |
| 1778004985 | 11.67° C | 92% | 1012.9 hPa | 0 mm | 0 m/s | - | - |
| 1778004385 | 12.22° C | 91% | 1012.9 hPa | 0 mm | 0 m/s | - | - |
| 1778003784 | 12.22° C | 91% | 1013.1 hPa | 0 mm | 0 m/s | - | - |
| 1778003184 | 12.22° C | 91% | 1012.9 hPa | 0 mm | 0 m/s | - | - |
| 1778002584 | 12.22° C | 90% | 1013.2 hPa | 0 mm | 0.45 m/s, 153° | - | - |
| 1778001983 | 12.78° C | 89% | 1013.4 hPa | 0 mm | 0.89 m/s, 135° | - | - |
* Rain latest hour (hover to see other rain measurements)
** Current wind speed in m/s (hover to see current wind gust speed)